Regional Weather Roundup
Issued by NWS

Home | Current Version | Previous Version | Graphics & Text | Print | Product List | Glossary On
Versions: 1 2 3 4 5 6 7 8 9 10 11 12 13 14 15 16 17 18 19 20 21 22 23 24 25 26 27 28 29 30 31 32 33 34 35 36 37 38 39 40 41 42 43 44 45 46 47 48 49 50
000
ASUS43 KTOP 040059
RWRKS

WEATHER ROUNDUP FOR KANSAS
NATIONAL WEATHER SERVICE GOODLAND KS
700 PM CST TUE MAR 03 2015

NOTE:  "FAIR" INDICATES FEW OR NO CLOUDS BELOW 12,000 FEET WITH NO
SIGNIFICANT WEATHER AND/OR OBSTRUCTIONS TO VISIBILITY.

KSZ001>006-013>018-027>032-041>047-040200-
NORTHWEST KANSAS

CITY           SKY/WX    TMP DP  RH WIND       PRES   REMARKS
GOODLAND       CLOUDY    27  14  58 NE8       29.92R
HAYS           CLOUDY    30  10  43 NE12      29.95R WCI  21
HILL CITY      MOCLDY    28  11  48 NE8       29.96R
RUSSELL        CLOUDY    31  16  54 N12       29.94R WCI  22
$$

KSZ061>065-074>080-084>089-040200-
SOUTHWEST KANSAS

CITY           SKY/WX    TMP DP  RH WIND       PRES   REMARKS
DODGE CITY     CLOUDY    32  21  64 NE10      29.91R WCI  24
ELKHART          N/A     32  27  82 NE12        N/A  WCI  23
GARDEN CITY    MOCLDY    30  21  69 NE9       29.90R
GREAT BEND     CLOUDY    34  18  51 NE13      29.93R WCI  25
LIBERAL        CLOUDY    37  27  65 NE13      29.90R WCI  29
$$

KSZ066>073-081>083-090>101-040200-
SOUTHEAST KANSAS

CITY           SKY/WX    TMP DP  RH WIND       PRES   REMARKS
CHANUTE        CLOUDY    43  36  76 N6        29.90R
COFFEYVILLE    CLOUDY    47  40  76 CALM      29.87R
HUTCHINSON     CLOUDY    36  21  54 N14G21    29.91R WCI  27
MEDICINE LODGE   N/A     41  29  62 N9        29.88S
NEWTON         CLOUDY    36  23  60 N16       29.91R WCI  26
PARSONS        LGT RAIN  44  39  82 NE6       29.87F
WICHITA INTL   CLOUDY    42  28  57 NE12      29.87F
WICHITA JABRA  CLOUDY    40  29  64 N10       29.87S WCI  33
WINFIELD       CLOUDY    43  31  62 E8        29.85F
$$

KSZ007>012-019>026-033>040-048>060-102>105-040200-
NORTHEAST KANSAS

CITY           SKY/WX    TMP DP  RH WIND       PRES   REMARKS
CONCORDIA      CLOUDY    31  16  54 N16       29.96R WCI  20
EMPORIA        CLOUDY    38  27  64 N15       29.88F WCI  29
LAWRENCE       CLOUDY    36  25  64 N20G26    29.94R WCI  25
MANHATTAN      CLOUDY    35  20  54 N8        29.96R
OLATHE IND     CLOUDY    38  29  70 N12       29.91R WCI  30
OLATHE EXE     CLOUDY    39  28  64 N9        29.90R
SALINA         CLOUDY    35  17  47 N18       29.96R WCI  24
TOPEKA BILLARD CLOUDY    35  23  61 N15       29.95R WCI  25
TOPEKA FORBES  CLOUDY    37  24  59 N18G25    29.92R WCI  27
$$



USA.gov is the U.S. government's official web portal to all federal, state and local government web resources and services.